Location: *
(50.9167°S, 179.4000°W)
Time: 21:24:09
(UTC+00:00)

SL-16 R/B - Pass Details

Date: 03 March 2024
Orbit: 842 x 845 km, 71.0° (Epoch: 16 April)

Event Time Altitude Azimuth Distance (km) Brightness Sun altitude
Rises 16:47:53 0° 209° (SSW) 3,443 5.3 -7.5°
Reaches altitude 10° 16:50:35 10° 199° (SSW) 2,502 4.7 -7.1°
Maximum altitude 16:55:50 35° 134° (SE) 1,352 4.0 -6.3°
Drops below altitude 10° 17:01:02 10° 68° (ENE) 2,480 5.5 -5.6°
Sets 17:03:42 0° 59° (ENE) 3,408 6.0 -5.2°
